Time,TemperatureF,DewpointF,PressureIn,WindDirection,WindDirectionDegrees,WindSpeedMPH,WindSpeedGustMPH,Humidity,HourlyPrecipIn,Conditions,Clouds,dailyrainin,SoftwareType,DateUTC
2013-07-27 00:53:00,67.0,61.0,-100.00,NNW,327,0.0,10.0,82,0.00,,,-99.99,,2013-07-27 04:53:00,
2013-07-27 01:02:00,66.0,61.0,-100.00,NNW,328,0.0,10.0,84,0.00,,,-99.99,,2013-07-27 05:02:00,
2013-07-27 01:52:00,66.0,61.0,-100.00,WNW,299,0.0,10.0,84,0.00,,,-99.99,,2013-07-27 05:52:00,
2013-07-27 02:02:00,66.0,61.0,-100.00,West,273,0.0,10.0,85,0.00,,,-99.99,,2013-07-27 06:02:00,
2013-07-27 02:52:00,65.0,61.0,-100.00,West,278,0.0,10.0,90,0.00,,,-99.99,,2013-07-27 06:52:00,
2013-07-27 03:12:00,66.0,61.0,-100.00,West,271,0.0,10.0,86,0.00,,,-99.99,,2013-07-27 07:12:00,
2013-07-27 03:22:00,66.0,61.0,-100.00,NNW,330,0.0,10.0,85,0.00,,,-99.99,,2013-07-27 07:22:00,
2013-07-27 03:34:00,66.0,63.0,-100.00,SE,136,0.0,0.0,90,0.00,,,-99.99,,2013-07-27 07:34:00,
2013-07-27 03:44:00,63.0,61.0,-100.00,SE,135,0.0,0.0,93,0.00,,,-99.99,,2013-07-27 07:44:00,
2013-07-27 06:43:00,64.0,59.0,-100.00,NNE,29,0.0,0.0,88,0.00,,,-99.99,,2013-07-27 10:43:00,
2013-07-27 07:02:00,64.0,59.0,-100.00,NNE,18,0.0,1.0,88,0.00,,,-99.99,,2013-07-27 11:02:00,
2013-07-27 07:12:00,65.0,61.0,-100.00,North,357,1.0,1.0,89,0.00,,,-99.99,,2013-07-27 11:12:00,
2013-07-27 07:22:00,66.0,63.0,-100.00,NE,36,1.0,1.0,89,0.00,,,-99.99,,2013-07-27 11:22:00,
2013-07-27 07:32:00,65.0,59.0,-100.00,NNE,12,0.0,1.0,86,0.00,,,-99.99,,2013-07-27 11:32:00,
2013-07-27 07:44:00,65.0,59.0,-100.00,North,5,1.0,1.0,86,0.00,,,-99.99,,2013-07-27 11:44:00,
2013-07-27 07:52:00,65.0,61.0,-100.00,NE,56,1.0,1.0,89,0.00,,,-99.99,,2013-07-27 11:52:00,
2013-07-27 08:12:00,66.0,61.0,-100.00,NNW,348,1.0,2.0,89,0.00,,,-99.99,,2013-07-27 12:12:00,
2013-07-27 08:22:00,65.0,61.0,-100.00,SSW,211,1.0,2.0,88,0.00,,,-99.99,,2013-07-27 12:22:00,
2013-07-27 08:33:00,64.0,61.0,-100.00,South,169,1.0,2.0,90,0.00,,,-99.99,,2013-07-27 12:33:00,
2013-07-27 22:03:00,68.0,64.0,-100.00,North,358,4.0,14.0,89,0.00,,,-99.99,,2013-07-28 02:03:00,